Regional Weather Roundup
Issued by NWS New Orleans/Baton Rouge, LA

Home | Current Version | Previous Version | Graphics & Text | Print | Product List | Glossary On
Versions: 1 2 3 4 5 6 7 8 9 10 11 12 13 14 15 16 17 18 19 20 21 22 23 24 25 26 27 28 29 30 31 32 33 34 35 36 37 38 39 40 41 42 43 44 45 46 47 48 49 50
669
ASUS44 KLIX 221001
RWRLIX
NEW ORLEANS REGIONAL WEATHER ROUNDUP
NATIONAL WEATHER SERVICE NEW ORLEANS LA
500 AM CDT FRI AUG 22 2014

NOTE: "FAIR" INDICATES FEW OR NO CLOUDS BELOW 12,000 FEET WITH NO
      SIGNIFICANT WEATHER AND/OR OBSTRUCTIONS TO VISIBILITY.
      SKY/WX - SKY CONDITION AND SIGNIFICANT WEATHER.
      TMP - AIR TEMPERATURE.     DP    - DEWPOINT TEMPERATURE.
      RH  - RELATIVE HUMIDITY.   PRES  - PRESSURE.
      HI  - HEAT INDEX.          WCI   - WIND CHILL INDEX.

*  THESE STATIONS ARE NOT NWS OR FAA STATIONS AND ARE NOT UNDER
   NWS QUALITY CONTROL.

LAZ038-040-048-061>063-065>067-069-221100-
SOUTHEAST LOUISIANA

CITY           SKY/WX    TMP DP  RH WIND       PRES   REMARKS
N.O. AUDUBON   NOT AVBL
N.O. INTL ARPT PTCLDY    76  72  87 N3        30.09R
N.O. LAKEFRONT PTCLDY    82  74  76 NW6       30.09R
N.O. DOWNTOWN*   N/A     79  70  73 CALM      30.09S
SLIDELL        PTCLDY    74  71  91 N3        30.08S
BATON ROUGE    PTCLDY    75  73  93 CALM      30.09R
BOOTHVILLE     CLEAR     82  78  88 NW3       30.08R
BELLE CHASSE   PTCLDY    74  70  87 CALM      30.08R
BOGALUSA*        N/A     74  71  88 CALM      30.10S
GALLIANO*      NOT AVBL
NEW ROADS*       N/A     72  72  98 CALM      30.09S
GONZALES*        N/A     73  73 100 CALM      30.08S
HAMMOND*       NOT AVBL
HOUMA*         CLEAR     73  70  90 CALM      30.08R
PORT FOURCHON* SUNNY     84  75  74 CALM      30.09R

$$

MSZ070-080>082-221100-
SOUTHERN MISSISSIPPI

CITY           SKY/WX    TMP DP  RH WIND       PRES   REMARKS
MCCOMB         PTCLDY    73  71  93 CALM      30.11R
GULFPORT       PTCLDY    77  74  90 W5        30.07S
BILOXI         PTCLDY    79  74  84 VRB1      30.08R
PASCAGOULA     CLEAR     74  72  93 CALM      30.08R

$$

COASTAL OBSERVATIONS
LAKE AND NEARSHORE STATIONS

STATION/POSITION TIME  TEMP    WIND        PRES    WAVE
                       AIR SEA DIR/SP/G            HT/PER
                 (UTC) (F)     (DEG/KT/KT) (MB)    (FT/S)
PASCAGOULA       0900   81     310/  5/  7 1017.9
WAVELAND YACHT   0900   79     330/  4/  5 1018.0
GRAND ISLE       0900   84 89  260/  3/  4 1019.0
SOUTHWEST PASS   0900   84 88  270/  6/  6 1018.4
NEW CANAL        0900   81 84  280/  1/  3 1019.1
SHELL BEACH      0900   81 82  310/  5/  6 1018.4

OFFSHORE STATIONS

STATION/POSITION TIME  TEMP    WIND        PRES    WAVE
                       AIR SEA DIR/SP/G            HT/PER
                 (UTC) (F)     (DEG/KT/KT) (MB)    (FT/S)
64 S DAUPHIN ISL 0932   85 88  290/  6/  8 1018.3

$$




USA.gov is the U.S. government's official web portal to all federal, state and local government web resources and services.